If you wish to contribute or participate in the discussions about articles you are invited to join SKYbrary as a registered user

 Actions

Benbecula Airport

From SKYbrary Wiki

EGPL
Airport
ICAO: EGPL – IATA: BEB
Summary
Name Benbecula Airport
Region Europe
Territory United Kingdom GB.gif
Location , Scotland
Serving Benbecula
Elevation 5.791 m
19 ft
19 ft5.791 m
Type medium airport
Coordinates 57° 28' 52.00" N, 7° 21' 46.00" W
Runways
Designator Length Width Surface ROPS
6/24 1836 m6,023.622 ft
46 m150.919 ft
ASP /
17/35 1220 m4,002.625 ft
46 m150.919 ft
ASP /


METAR
Observation EGPL 142320Z AUTO 01009KT 9999 NCD 03/M00 Q1020
Station Benbecula
Date/Time 14 November 2019 23:20:00
Wind direction 10°
Wind speed 09 kts
Lowest cloud amount no clouds detected
Temperature 3°C
Dew point
Humidity 80%
QNH 1020 hPa
Weather condition n/a